Home   Weather   Kalisz   Past weeks

Flag for Poland Past Weather in Kalisz, Poland — Yesterday and Last 2 Weeks

Now
50 °F

Overcast.


Feels Like: 48 °F
Forecast: 40 / 47 °F
Wind: 6 mph from South

Location: Kalisz

Current Time: Apr 25, 2017 at 10:49:07 am

Latest Report: Apr 25, 2017 at 9:00 am


Visibility: 15 mi

Pressure: 29.64 "Hg

Humidity: 66%

Dew Point: 39 °F

Location of KaliszLocation

Past Weather in Kalisz — Graph

°F

Kalisz Temperature Yesterday

Maximum temperature yesterday: 52 °F (at 6:00 pm)
Minimum temperature yesterday: 33 °F (at 6:00 am)
Average temperature yesterday: 43 °F

High & Low Weather Summary for the Past Weeks

 TemperatureHumidityPressure
High70 °F (Apr 10, 4:00 pm)100% (Apr 12, 11:00 pm)30.50 "Hg (Apr 12, 11:00 pm)
Low31 °F (Apr 19, 6:00 am)39% (Apr 10, 6:00 pm)29.64 "Hg (Apr 25, 9:00 am)
Average43 °F76%30.02 "Hg
* Reported Apr 10 9:00 am — Apr 25 9:00 am, Kalisz, Weather by CustomWeather, © 2017

Note: Actual official high and low records may vary slightly from our data, if they occured in-between our weather recording intervals... More about our weather records

Advertising

Kalisz Weather History for the Previous 24 Hours

Scroll right to see more
 ConditionsComfort  
Time TempWeatherWind HumidityBarometerVisibility
9:00 am
Tue, Apr 25
50 °FOvercast.6 mph66%29.64 "Hg15 mi
8:00 am46 °FOvercast.5 mph72%29.66 "Hg16 mi
7:00 am44 °FOvercast.3 mph76%29.67 "Hg16 mi
6:00 am42 °FOvercast.5 mph76%29.70 "Hg9 mi
5:00 am43 °FOvercast.5 mph74%29.70 "Hg12 mi
4:00 am43 °FOvercast.5 mph73%29.73 "Hg12 mi
3:00 am43 °FOvercast.5 mph71%29.75 "Hg9 mi
2:00 am43 °FOvercast.3 mph72%29.78 "Hg9 mi
1:00 am44 °FOvercast.3 mph69%29.80 "Hg9 mi
12:00 am46 °FOvercast.5 mph64%29.82 "Hg12 mi
11:00 pm
Mon, Apr 24
46 °FOvercast.5 mph64%29.84 "Hg12 mi
10:00 pm47 °FPassing clouds.5 mph61%29.85 "Hg12 mi
9:00 pm49 °FOvercast.3 mph54%29.87 "Hg16 mi
8:00 pm51 °FOvercast.5 mph49%29.87 "Hg22 mi
7:00 pm51 °FOvercast.6 mph50%29.89 "Hg31 mi
6:00 pm52 °FOvercast.6 mph44%29.90 "Hg25 mi
5:00 pm52 °FOvercast.6 mph41%29.93 "Hg25 mi
4:00 pm50 °FOvercast.6 mph50%29.96 "Hg22 mi
3:00 pm50 °FOvercast.6 mph53%29.98 "Hg19 mi
2:00 pm49 °FOvercast.6 mph55%30.02 "Hg19 mi
1:00 pm47 °FOvercast.6 mph61%30.04 "Hg22 mi
12:00 pm46 °FOvercast.7 mph58%30.06 "Hg22 mi
11:00 am44 °FOvercast.7 mph70%30.07 "Hg17 mi
10:00 am42 °FOvercast.5 mph77%30.08 "Hg25 mi
Weather by CustomWeather, © 2017

See weather overviewHow to use our weather pages